Location: Unspecified
(38.0467°N, 0.0000°E)
Time: 05:18:17
(UTC+00:00)

NOAA 16 DEB - Visible Passes

Search period start: 04 April 2026 00:00
Search period end: 14 April 2026 00:00
Orbit: 801 x 894 km, 98.8° (Epoch: 23 March)

Date Brightness Start Highest point End Pass type
(mag) Time Alt. Az. Time Alt. Az. Time Alt. Az.
5 Apr ? 18:46:05 10° WSW 18:48:39 13° W 18:51:15 10° WNW visible
8 Apr ? 05:00:37 10° NE 05:04:42 22° E 05:08:42 10° SE visible
9 Apr ? 04:48:26 10° NE 04:51:42 16° E 04:54:55 10° SE visible
10 Apr ? 04:36:47 10° ENE 04:38:40 12° E 04:40:32 10° ESE visible
